Year,Month,Day,Hour,Minute,Value (Times are PST for temperature in C)
2013,04,29,00,00,5.70
2013,04,29,00,01,5.70
2013,04,29,00,02,5.70
2013,04,29,00,03,5.70
2013,04,29,00,04,5.70
2013,04,29,00,05,5.70
2013,04,29,00,06,5.70
2013,04,29,00,07,5.70
2013,04,29,00,08,5.70
2013,04,29,00,09,5.70
2013,04,29,00,10,5.70
2013,04,29,00,11,5.70
2013,04,29,00,12,5.70
2013,04,29,00,13,5.70
2013,04,29,00,14,5.80
2013,04,29,00,15,5.80
2013,04,29,00,16,5.90
2013,04,29,00,17,5.90
2013,04,29,00,18,5.90
2013,04,29,00,19,5.90
2013,04,29,00,20,5.90
2013,04,29,00,21,6.00
2013,04,29,00,22,6.00
2013,04,29,00,23,6.10
2013,04,29,00,24,6.10
2013,04,29,00,25,6.10
2013,04,29,00,26,6.10
2013,04,29,00,27,6.10
2013,04,29,00,28,6.10
2013,04,29,00,29,6.10
2013,04,29,00,30,6.10
2013,04,29,00,31,6.10
2013,04,29,00,32,6.10
2013,04,29,00,33,6.00
2013,04,29,00,34,6.00
2013,04,29,00,35,6.00
2013,04,29,00,36,6.00
2013,04,29,00,37,6.00
2013,04,29,00,38,6.00
2013,04,29,00,39,5.90
2013,04,29,00,40,5.90
2013,04,29,00,41,5.90
2013,04,29,00,42,5.90
2013,04,29,00,43,5.90
2013,04,29,00,44,5.90
2013,04,29,00,45,5.80
2013,04,29,00,46,5.80
2013,04,29,00,47,5.80
2013,04,29,00,48,5.80
2013,04,29,00,49,5.80
2013,04,29,00,50,5.80
2013,04,29,00,51,5.70
2013,04,29,00,52,5.70
2013,04,29,00,53,5.70
2013,04,29,00,54,5.70
2013,04,29,00,55,5.70
2013,04,29,00,56,5.70
2013,04,29,00,57,5.70
2013,04,29,00,58,5.60
2013,04,29,00,59,5.60
2013,04,29,01,00,5.60
2013,04,29,01,01,5.50
2013,04,29,01,02,5.50
2013,04,29,01,03,5.50
2013,04,29,01,04,5.50
2013,04,29,01,05,5.50
2013,04,29,01,06,5.40
2013,04,29,01,07,5.40
2013,04,29,01,08,5.30
2013,04,29,01,09,5.30
2013,04,29,01,10,5.30
2013,04,29,01,11,5.30
2013,04,29,01,12,5.30
2013,04,29,01,13,5.30
2013,04,29,01,14,5.30
2013,04,29,01,15,5.20
2013,04,29,01,16,5.20
2013,04,29,01,17,5.20
2013,04,29,01,18,5.20
2013,04,29,01,19,5.20
2013,04,29,01,20,5.20
2013,04,29,01,21,5.20
2013,04,29,01,22,5.20
2013,04,29,01,23,5.20
2013,04,29,01,24,5.30
2013,04,29,01,25,5.30
2013,04,29,01,26,5.30
2013,04,29,01,27,5.30
2013,04,29,01,28,5.30
2013,04,29,01,29,5.30
2013,04,29,01,30,5.30
2013,04,29,01,31,5.30
2013,04,29,01,32,5.30
2013,04,29,01,33,5.30
2013,04,29,01,34,5.20
2013,04,29,01,35,5.20
2013,04,29,01,36,5.20
2013,04,29,01,37,5.20
2013,04,29,01,38,5.10
2013,04,29,01,39,5.10
2013,04,29,01,40,5.10
2013,04,29,01,41,5.10
2013,04,29,01,42,5.10
2013,04,29,01,43,5.10
2013,04,29,01,44,5.10
2013,04,29,01,45,4.90
2013,04,29,01,46,4.90
2013,04,29,01,47,4.90
2013,04,29,01,48,4.90
2013,04,29,01,49,4.90
2013,04,29,01,50,4.90
2013,04,29,01,51,4.90
2013,04,29,01,52,4.90
2013,04,29,01,53,4.80
2013,04,29,01,54,4.80
2013,04,29,01,55,4.80
2013,04,29,01,56,4.80
2013,04,29,01,57,4.80
2013,04,29,01,58,4.80
2013,04,29,01,59,4.80
2013,04,29,02,00,4.80
2013,04,29,02,01,4.70
2013,04,29,02,02,4.70
2013,04,29,02,03,4.70
2013,04,29,02,04,4.60
2013,04,29,02,05,4.60
2013,04,29,02,06,4.60
2013,04,29,02,07,4.60
2013,04,29,02,08,4.60
2013,04,29,02,09,4.60
2013,04,29,02,10,4.60
2013,04,29,02,11,4.60
2013,04,29,02,12,4.50
2013,04,29,02,13,4.50
2013,04,29,02,14,4.60
2013,04,29,02,15,4.60
2013,04,29,02,16,4.60
2013,04,29,02,17,4.60
2013,04,29,02,18,4.60
2013,04,29,02,19,4.70
2013,04,29,02,20,4.80
2013,04,29,02,21,4.80
2013,04,29,02,22,4.80
2013,04,29,02,23,4.80
2013,04,29,02,24,4.80
2013,04,29,02,25,4.80
2013,04,29,02,26,4.80
2013,04,29,02,27,4.80
2013,04,29,02,28,4.80
2013,04,29,02,29,4.80
2013,04,29,02,30,4.70
2013,04,29,02,31,4.70
2013,04,29,02,32,4.70
2013,04,29,02,33,4.70
2013,04,29,02,34,4.70
2013,04,29,02,35,4.70
2013,04,29,02,36,4.80
2013,04,29,02,37,4.80
2013,04,29,02,38,4.80
2013,04,29,02,39,4.80
2013,04,29,02,40,4.80
2013,04,29,02,41,4.90
2013,04,29,02,42,4.90
2013,04,29,02,43,4.90
2013,04,29,02,44,4.90
2013,04,29,02,45,4.90
2013,04,29,02,46,4.90
2013,04,29,02,47,4.90
2013,04,29,02,48,4.90
2013,04,29,02,49,4.90
2013,04,29,02,50,4.90
2013,04,29,02,51,4.90
2013,04,29,02,52,4.90
2013,04,29,02,53,4.90
2013,04,29,02,54,4.90
2013,04,29,02,55,4.90
2013,04,29,02,56,4.90
2013,04,29,02,57,4.90
2013,04,29,02,58,4.80
2013,04,29,02,59,4.80
2013,04,29,03,00,4.80
2013,04,29,03,01,4.80
2013,04,29,03,02,4.80
2013,04,29,03,03,4.70
2013,04,29,03,04,4.70
2013,04,29,03,05,4.70
2013,04,29,03,06,4.60
2013,04,29,03,07,4.60
2013,04,29,03,08,4.60
2013,04,29,03,09,4.60
2013,04,29,03,10,4.60
2013,04,29,03,11,4.60
2013,04,29,03,12,4.60
2013,04,29,03,13,4.60
2013,04,29,03,14,4.60
2013,04,29,03,15,4.60
2013,04,29,03,16,4.60
2013,04,29,03,17,4.60
2013,04,29,03,18,4.60
2013,04,29,03,19,4.60
2013,04,29,03,20,4.60
2013,04,29,03,21,4.60
2013,04,29,03,22,4.60
2013,04,29,03,23,4.60
2013,04,29,03,24,4.60
2013,04,29,03,25,4.60
2013,04,29,03,26,4.60
2013,04,29,03,27,4.60
2013,04,29,03,28,4.60
2013,04,29,03,29,4.60
2013,04,29,03,30,4.50
2013,04,29,03,31,4.50
2013,04,29,03,32,4.50
2013,04,29,03,33,4.50
2013,04,29,03,34,4.50
2013,04,29,03,35,4.50
2013,04,29,03,36,4.50
2013,04,29,03,37,4.50
2013,04,29,03,38,4.50
2013,04,29,03,39,4.50
2013,04,29,03,40,4.50
2013,04,29,03,41,4.50
2013,04,29,03,42,4.50
2013,04,29,03,43,4.50
2013,04,29,03,44,4.50
2013,04,29,03,45,4.50
2013,04,29,03,46,4.50
2013,04,29,03,47,4.40
2013,04,29,03,48,4.40
2013,04,29,03,49,4.40
2013,04,29,03,50,4.40
2013,04,29,03,51,4.40
2013,04,29,03,52,4.40
2013,04,29,03,53,4.40
2013,04,29,03,54,4.40
2013,04,29,03,55,4.40
2013,04,29,03,56,4.40
2013,04,29,03,57,4.40
2013,04,29,03,58,4.40
2013,04,29,03,59,4.40
2013,04,29,04,00,4.40
2013,04,29,04,01,4.40
2013,04,29,04,02,4.40
2013,04,29,06,34,3.30
2013,04,29,06,35,3.30
2013,04,29,06,36,3.30
2013,04,29,06,37,3.30
2013,04,29,06,38,3.30
2013,04,29,06,39,3.30
2013,04,29,06,40,3.30
2013,04,29,06,41,3.30
2013,04,29,06,42,3.30
2013,04,29,06,43,3.30
2013,04,29,06,44,3.30
2013,04,29,06,45,3.30
2013,04,29,06,46,3.30
2013,04,29,06,47,3.30
2013,04,29,06,48,3.30
2013,04,29,06,49,3.30
2013,04,29,06,50,3.30
2013,04,29,06,51,3.30
2013,04,29,06,52,3.30
2013,04,29,06,53,3.30
2013,04,29,06,54,3.30
2013,04,29,06,55,3.30
2013,04,29,06,56,3.30
2013,04,29,06,57,3.30
2013,04,29,06,58,3.30
2013,04,29,06,59,3.30
2013,04,29,07,00,3.30
2013,04,29,07,01,3.30
2013,04,29,07,02,3.30
2013,04,29,07,03,3.30
2013,04,29,07,04,3.30
2013,04,29,07,05,3.30
2013,04,29,07,06,3.30
2013,04,29,07,07,3.30
2013,04,29,07,08,3.40
2013,04,29,07,09,3.40
2013,04,29,07,10,3.40
2013,04,29,07,11,3.40
2013,04,29,07,12,3.50
2013,04,29,07,13,3.50
2013,04,29,07,14,3.60
2013,04,29,07,15,3.60
2013,04,29,07,16,3.70
2013,04,29,07,17,3.70
2013,04,29,07,18,3.70
2013,04,29,07,19,3.80
2013,04,29,07,20,3.80
2013,04,29,07,21,3.80
2013,04,29,07,22,3.80
2013,04,29,07,23,3.80
2013,04,29,07,24,3.90
2013,04,29,07,25,4.00
2013,04,29,07,26,4.00
2013,04,29,07,27,4.10
2013,04,29,07,28,4.10
2013,04,29,07,29,4.20
2013,04,29,07,30,4.20
2013,04,29,07,31,4.20
2013,04,29,07,32,4.20
2013,04,29,07,33,4.30
2013,04,29,07,34,4.30
2013,04,29,07,35,4.40
2013,04,29,07,36,4.50
2013,04,29,07,37,4.50
2013,04,29,07,38,4.50
2013,04,29,07,39,4.60
2013,04,29,07,40,4.60
2013,04,29,07,41,4.60
2013,04,29,07,42,4.60
2013,04,29,07,43,4.60
2013,04,29,07,44,4.70
2013,04,29,07,45,4.70
2013,04,29,07,46,4.80
2013,04,29,07,47,4.80
2013,04,29,07,48,4.80
2013,04,29,07,49,4.80
2013,04,29,07,50,4.80
2013,04,29,07,51,4.70
2013,04,29,07,52,4.70
2013,04,29,07,53,4.70
2013,04,29,07,54,4.70
2013,04,29,07,55,4.70
2013,04,29,07,56,4.70
2013,04,29,07,57,4.70
2013,04,29,07,58,4.70
2013,04,29,07,59,4.70
2013,04,29,08,00,4.70
2013,04,29,08,01,4.70
2013,04,29,08,02,4.80
2013,04,29,08,03,4.80
2013,04,29,08,04,4.80
2013,04,29,08,05,4.90
2013,04,29,08,06,4.90
2013,04,29,08,07,4.90
2013,04,29,08,08,5.10
2013,04,29,08,09,5.10
2013,04,29,08,10,5.30
2013,04,29,08,11,5.30
2013,04,29,08,12,5.40
2013,04,29,08,13,5.50
2013,04,29,08,14,5.50
2013,04,29,08,15,5.60
2013,04,29,08,16,5.70
2013,04,29,08,17,5.70
2013,04,29,08,18,5.70
2013,04,29,08,19,5.80
2013,04,29,08,20,5.80
2013,04,29,08,21,5.90
2013,04,29,08,22,5.90
2013,04,29,08,23,5.80
2013,04,29,08,24,5.80
2013,04,29,08,25,5.80
2013,04,29,08,26,5.80
2013,04,29,08,27,5.80
2013,04,29,08,28,5.80
2013,04,29,08,29,5.80
2013,04,29,08,30,5.70
2013,04,29,08,31,5.70
2013,04,29,08,32,5.70
2013,04,29,08,33,5.70
2013,04,29,08,34,5.70
2013,04,29,08,35,5.80
2013,04,29,08,36,5.90
2013,04,29,08,37,6.00
2013,04,29,08,38,6.00
2013,04,29,08,39,6.00
2013,04,29,08,40,6.00
2013,04,29,08,41,6.00
2013,04,29,08,42,6.00
2013,04,29,08,43,6.00
2013,04,29,08,44,6.00
2013,04,29,08,45,6.00
2013,04,29,08,46,6.00
2013,04,29,08,47,6.10
2013,04,29,08,48,6.10
2013,04,29,08,49,6.10
2013,04,29,08,50,6.20
2013,04,29,08,51,6.20
2013,04,29,08,52,6.20
2013,04,29,08,53,6.20
2013,04,29,08,54,6.20
2013,04,29,08,55,6.20
2013,04,29,08,56,6.30
2013,04,29,08,57,6.30
2013,04,29,08,58,6.30
2013,04,29,08,59,6.40
2013,04,29,09,00,6.40
2013,04,29,09,01,6.40
2013,04,29,09,02,6.40
2013,04,29,09,03,6.40
2013,04,29,09,04,6.40
2013,04,29,09,05,6.40
2013,04,29,09,06,6.60
2013,04,29,09,07,6.60
2013,04,29,09,08,6.60
2013,04,29,09,09,6.60
2013,04,29,09,10,6.70
2013,04,29,09,11,6.70
2013,04,29,09,12,6.70
2013,04,29,09,13,6.70
2013,04,29,09,14,6.80
2013,04,29,09,15,6.80
2013,04,29,09,16,6.80
2013,04,29,09,17,6.90
2013,04,29,09,18,6.90
2013,04,29,09,19,6.90
2013,04,29,09,20,6.90
2013,04,29,09,21,6.90
2013,04,29,09,22,7.00
2013,04,29,09,23,7.10
2013,04,29,09,24,7.20
2013,04,29,09,25,7.20
2013,04,29,09,26,7.30
2013,04,29,09,27,7.30
2013,04,29,09,28,7.30
2013,04,29,09,29,7.30
2013,04,29,09,30,7.40
2013,04,29,09,31,7.40
2013,04,29,09,32,7.40
2013,04,29,09,33,7.40
2013,04,29,09,34,7.40
2013,04,29,09,35,7.40
2013,04,29,09,36,7.40
2013,04,29,09,37,7.40
2013,04,29,09,38,7.40
2013,04,29,09,39,7.40
2013,04,29,09,40,7.40
2013,04,29,09,41,7.40
2013,04,29,09,42,7.40
2013,04,29,09,43,7.50
2013,04,29,09,44,7.50
2013,04,29,09,45,7.70
2013,04,29,09,46,7.80
2013,04,29,09,47,7.80
2013,04,29,09,48,7.80
2013,04,29,09,49,7.80
2013,04,29,09,50,7.90
2013,04,29,09,51,7.90
2013,04,29,09,52,8.00
2013,04,29,09,53,8.10
2013,04,29,09,54,8.20
2013,04,29,09,55,8.20
2013,04,29,09,56,8.20
2013,04,29,09,57,8.20
2013,04,29,09,58,8.20
2013,04,29,09,59,8.20
2013,04,29,10,00,8.20
2013,04,29,10,01,8.20
2013,04,29,10,02,8.30
2013,04,29,10,03,8.30
2013,04,29,10,04,8.50
2013,04,29,10,05,8.60
2013,04,29,10,06,8.70
2013,04,29,10,07,8.70
2013,04,29,10,08,8.80
2013,04,29,10,09,8.90
2013,04,29,10,10,9.00
2013,04,29,10,11,9.20
2013,04,29,10,12,9.20
2013,04,29,10,13,9.20
2013,04,29,10,14,9.30
2013,04,29,10,15,9.40
2013,04,29,10,16,9.40
2013,04,29,10,17,9.40
2013,04,29,10,18,9.50
2013,04,29,10,19,9.50
2013,04,29,10,20,9.40
2013,04,29,10,21,9.40
2013,04,29,10,22,9.40
2013,04,29,10,23,9.40
2013,04,29,10,24,9.30
2013,04,29,10,25,9.30
2013,04,29,10,26,9.30
2013,04,29,10,27,9.40
2013,04,29,10,28,9.40
2013,04,29,10,29,9.50
2013,04,29,10,30,9.60
2013,04,29,10,31,9.70
2013,04,29,10,32,9.70
2013,04,29,10,33,9.60
2013,04,29,10,34,9.60
2013,04,29,10,35,9.60
2013,04,29,10,36,9.60
2013,04,29,10,37,9.60
2013,04,29,10,38,9.60
2013,04,29,10,39,9.60
2013,04,29,10,40,9.60
2013,04,29,10,41,9.60
2013,04,29,10,42,9.70
2013,04,29,10,43,9.60
2013,04,29,10,44,9.60
2013,04,29,10,45,9.50
2013,04,29,10,46,9.60
2013,04,29,10,47,9.60
2013,04,29,10,48,9.70
2013,04,29,10,49,9.70
2013,04,29,10,50,9.80
2013,04,29,10,51,9.90
2013,04,29,10,52,10.10
2013,04,29,10,53,10.10
2013,04,29,10,54,10.10
2013,04,29,10,55,10.10
2013,04,29,10,56,10.10
2013,04,29,10,57,10.10
2013,04,29,10,58,10.30
2013,04,29,10,59,10.40
2013,04,29,11,00,10.60
2013,04,29,11,01,10.60
2013,04,29,11,02,10.90
2013,04,29,11,03,10.90
2013,04,29,11,04,11.10
2013,04,29,11,05,11.10
2013,04,29,11,06,10.90
2013,04,29,11,07,10.90
2013,04,29,11,08,10.80
2013,04,29,11,09,10.80
2013,04,29,11,10,10.90
2013,04,29,11,11,10.90
2013,04,29,11,12,10.90
2013,04,29,11,13,11.10
2013,04,29,11,14,11.20
2013,04,29,11,15,11.30
2013,04,29,11,16,11.30
2013,04,29,11,17,11.30
2013,04,29,11,18,11.40
2013,04,29,11,19,11.40
2013,04,29,11,20,11.40
2013,04,29,11,21,11.40
2013,04,29,11,22,11.30
2013,04,29,11,23,11.20
2013,04,29,11,24,11.20
2013,04,29,11,25,11.10
2013,04,29,11,26,11.10
2013,04,29,11,27,11.20
2013,04,29,11,28,11.20
2013,04,29,11,29,11.40
2013,04,29,11,30,11.40
2013,04,29,11,31,11.40
2013,04,29,11,32,11.60
2013,04,29,11,33,11.60
2013,04,29,11,34,11.60
2013,04,29,11,35,11.60
2013,04,29,11,36,11.60
2013,04,29,11,37,11.70
2013,04,29,11,38,11.80
2013,04,29,11,39,11.80
2013,04,29,11,40,11.80
2013,04,29,11,41,11.90
2013,04,29,11,42,11.90
2013,04,29,11,43,12.00
2013,04,29,11,44,12.00
2013,04,29,11,45,12.10
2013,04,29,11,46,12.00
2013,04,29,11,47,12.00
2013,04,29,11,48,12.00
2013,04,29,11,49,12.00
2013,04,29,11,50,12.00
2013,04,29,11,51,11.90
2013,04,29,11,52,11.90
2013,04,29,11,53,11.90
2013,04,29,11,54,11.90
2013,04,29,11,55,11.80
2013,04,29,11,56,11.80
2013,04,29,11,57,11.90
2013,04,29,11,58,11.90
2013,04,29,11,59,11.80
2013,04,29,12,00,11.80
2013,04,29,12,01,11.80
2013,04,29,12,02,11.80
2013,04,29,12,03,11.90
2013,04,29,12,04,11.90
2013,04,29,12,05,11.80
2013,04,29,12,06,11.80
2013,04,29,12,07,11.70
2013,04,29,12,08,11.60
2013,04,29,12,09,11.60
2013,04,29,12,10,11.60
2013,04,29,12,11,11.40
2013,04,29,12,12,11.20
2013,04,29,12,13,11.10
2013,04,29,12,14,10.90
2013,04,29,12,15,10.80
2013,04,29,12,16,10.70
2013,04,29,12,17,10.60
2013,04,29,12,18,10.80
2013,04,29,12,19,10.90
2013,04,29,12,20,10.90
2013,04,29,12,21,11.10
2013,04,29,12,22,11.10
2013,04,29,12,23,11.20
2013,04,29,12,24,11.20
2013,04,29,12,25,11.20
2013,04,29,12,26,11.10
2013,04,29,12,27,11.10
2013,04,29,12,28,10.90
2013,04,29,12,29,10.90
2013,04,29,12,30,10.80
2013,04,29,12,31,10.70
2013,04,29,12,32,10.60
2013,04,29,12,33,10.60
2013,04,29,12,34,10.40
2013,04,29,12,35,10.40
2013,04,29,12,36,10.40
2013,04,29,12,37,10.40
2013,04,29,12,38,10.60
2013,04,29,12,39,10.60
2013,04,29,12,40,10.80
2013,04,29,12,41,10.90
2013,04,29,12,42,10.80
2013,04,29,12,43,10.70
2013,04,29,12,44,10.60
2013,04,29,12,45,10.60
2013,04,29,12,46,10.60
2013,04,29,12,47,10.60
2013,04,29,12,48,10.70
2013,04,29,12,49,10.80
2013,04,29,12,50,10.90
2013,04,29,12,51,10.90
2013,04,29,12,52,10.90
2013,04,29,12,53,11.10
2013,04,29,12,54,11.20
2013,04,29,12,55,11.30
2013,04,29,12,56,11.40
2013,04,29,12,57,11.40
2013,04,29,12,58,11.40
2013,04,29,12,59,11.40
2013,04,29,13,00,11.40
2013,04,29,13,01,11.40
2013,04,29,13,02,11.40
2013,04,29,13,03,11.40
2013,04,29,13,04,11.40
2013,04,29,13,05,11.60
2013,04,29,13,06,11.60
2013,04,29,13,07,11.60
2013,04,29,13,08,11.70
2013,04,29,13,09,11.80
2013,04,29,13,10,11.90
2013,04,29,13,11,12.00
2013,04,29,13,12,11.90
2013,04,29,13,13,11.90
2013,04,29,13,14,11.90
2013,04,29,13,15,11.90
2013,04,29,13,16,11.90
2013,04,29,13,17,11.90
2013,04,29,13,18,11.80
2013,04,29,13,19,11.80
2013,04,29,13,20,11.70
2013,04,29,13,21,11.70
2013,04,29,13,22,11.70
2013,04,29,13,23,11.70
2013,04,29,13,24,11.70
2013,04,29,13,25,11.60
2013,04,29,13,26,11.60
2013,04,29,13,27,11.60
2013,04,29,13,28,11.40
2013,04,29,13,29,11.40
2013,04,29,13,30,11.30
2013,04,29,13,31,11.30
2013,04,29,13,32,11.40
2013,04,29,13,33,11.40
2013,04,29,13,34,11.60
2013,04,29,13,35,11.60
2013,04,29,13,36,11.70
2013,04,29,13,37,11.70
2013,04,29,13,38,11.60
2013,04,29,13,39,11.60
2013,04,29,13,40,11.60
2013,04,29,13,41,11.60
2013,04,29,13,42,11.40
2013,04,29,13,43,11.40
2013,04,29,13,44,11.40
2013,04,29,13,45,11.30
2013,04,29,13,46,11.20
2013,04,29,13,47,11.20
2013,04,29,13,48,11.20
2013,04,29,13,49,11.20
2013,04,29,13,50,11.20
2013,04,29,13,51,11.20
2013,04,29,13,52,11.30
2013,04,29,13,53,11.40
2013,04,29,13,54,11.40
2013,04,29,13,55,11.60
2013,04,29,13,56,11.60
2013,04,29,13,57,11.80
2013,04,29,13,58,11.80
2013,04,29,13,59,11.80
2013,04,29,14,00,11.90
2013,04,29,14,01,12.00
2013,04,29,14,02,12.00
2013,04,29,14,03,12.10
2013,04,29,14,04,12.10
2013,04,29,14,05,12.10
2013,04,29,14,06,12.00
2013,04,29,14,07,12.00
2013,04,29,14,08,12.00
2013,04,29,14,09,12.00
2013,04,29,14,10,12.10
2013,04,29,14,11,12.10
2013,04,29,14,12,12.10
2013,04,29,14,13,12.00
2013,04,29,14,14,12.00
2013,04,29,14,15,11.90
2013,04,29,14,16,11.80
2013,04,29,14,17,11.60
2013,04,29,14,18,11.60
2013,04,29,14,19,11.40
2013,04,29,14,20,11.40
2013,04,29,14,21,11.40
2013,04,29,14,22,11.40
2013,04,29,14,23,11.60
2013,04,29,14,24,11.60
2013,04,29,14,25,11.60
2013,04,29,14,26,11.60
2013,04,29,14,27,11.60
2013,04,29,14,28,11.70
2013,04,29,14,29,11.70
2013,04,29,14,30,11.60
2013,04,29,14,31,11.60
2013,04,29,14,32,11.60
2013,04,29,14,33,11.60
2013,04,29,14,34,11.60
2013,04,29,14,35,11.40
2013,04,29,14,36,11.40
2013,04,29,14,37,11.40
2013,04,29,14,38,11.40
2013,04,29,14,39,11.60
2013,04,29,14,40,11.60
2013,04,29,14,41,11.60
2013,04,29,14,42,11.60
2013,04,29,14,43,11.70
2013,04,29,14,44,11.70
2013,04,29,14,45,11.70
2013,04,29,14,46,11.80
2013,04,29,14,47,11.80
2013,04,29,14,48,11.70
2013,04,29,14,49,11.80
2013,04,29,14,50,11.80
2013,04,29,14,51,11.80
2013,04,29,14,52,11.80
2013,04,29,14,53,11.90
2013,04,29,14,54,11.90
2013,04,29,14,55,11.90
2013,04,29,14,56,12.00
2013,04,29,14,57,12.00
2013,04,29,14,58,12.10
2013,04,29,14,59,12.10
2013,04,29,15,00,12.00
2013,04,29,15,01,12.00
2013,04,29,15,02,11.90
2013,04,29,15,03,11.90
2013,04,29,15,04,11.90
2013,04,29,15,05,11.90
2013,04,29,15,06,11.90
2013,04,29,15,07,11.90
2013,04,29,15,08,11.90
2013,04,29,15,09,11.90
2013,04,29,15,10,11.90
2013,04,29,15,11,11.90
2013,04,29,15,12,12.00
2013,04,29,15,13,12.00
2013,04,29,15,14,12.10
2013,04,29,15,15,12.20
2013,04,29,15,16,12.20
2013,04,29,15,17,12.30
2013,04,29,15,18,12.30
2013,04,29,15,19,12.30
2013,04,29,15,20,12.30
2013,04,29,15,21,12.40
2013,04,29,15,22,12.50
2013,04,29,15,23,12.50
2013,04,29,15,24,12.50
2013,04,29,15,25,12.50
2013,04,29,15,26,12.50
2013,04,29,15,27,12.50
2013,04,29,15,28,12.50
2013,04,29,15,29,12.40
2013,04,29,15,30,12.30
2013,04,29,15,31,12.30
2013,04,29,15,32,12.30
2013,04,29,15,33,12.20
2013,04,29,15,34,12.20
2013,04,29,15,35,12.20
2013,04,29,15,36,12.20
2013,04,29,15,37,12.10
2013,04,29,15,38,12.10
2013,04,29,15,39,12.00
2013,04,29,15,40,11.90
2013,04,29,15,41,11.80
2013,04,29,15,42,11.80
2013,04,29,15,43,11.80
2013,04,29,15,44,11.80
2013,04,29,15,45,11.80
2013,04,29,15,46,11.80
2013,04,29,15,47,11.80
2013,04,29,15,48,11.80
2013,04,29,15,49,11.90
2013,04,29,15,50,12.00
2013,04,29,15,51,12.00
2013,04,29,15,52,12.10
2013,04,29,15,53,12.20
2013,04,29,15,54,12.30
2013,04,29,15,55,12.30
2013,04,29,15,56,12.30
2013,04,29,15,57,12.30
2013,04,29,15,58,12.20
2013,04,29,15,59,12.20
2013,04,29,16,00,12.30
2013,04,29,16,01,12.30
2013,04,29,16,02,12.30
2013,04,29,16,03,12.30
2013,04,29,16,04,12.30
2013,04,29,16,05,12.30
2013,04,29,16,06,12.40
2013,04,29,16,07,12.40
2013,04,29,16,08,12.40
2013,04,29,16,09,12.40
2013,04,29,16,10,12.60
2013,04,29,16,11,12.70
2013,04,29,16,12,12.80
2013,04,29,16,13,13.00
2013,04,29,16,14,13.00
2013,04,29,16,15,13.10
2013,04,29,16,16,13.10
2013,04,29,16,17,13.00
2013,04,29,16,18,12.80
2013,04,29,16,19,12.80
2013,04,29,16,20,12.70
2013,04,29,16,21,12.50
2013,04,29,16,22,12.40
2013,04,29,16,23,12.30
2013,04,29,16,24,12.20
2013,04,29,16,25,12.20
2013,04,29,16,26,12.20
2013,04,29,16,27,12.30
2013,04,29,16,28,12.30
2013,04,29,16,29,12.30
2013,04,29,16,30,12.30
2013,04,29,16,31,12.40
2013,04,29,16,32,12.50
2013,04,29,16,33,12.60
2013,04,29,16,34,12.70
2013,04,29,16,35,12.70
2013,04,29,16,36,12.60
2013,04,29,16,37,12.50
2013,04,29,16,38,12.50
2013,04,29,16,39,12.50
2013,04,29,16,40,12.50
2013,04,29,16,41,12.50
2013,04,29,16,42,12.40
2013,04,29,16,43,12.40
2013,04,29,16,44,12.40
2013,04,29,16,45,12.50
2013,04,29,16,46,12.50
2013,04,29,16,47,12.50
2013,04,29,16,48,12.50
2013,04,29,16,49,12.50
2013,04,29,16,50,12.50
2013,04,29,16,51,12.50
2013,04,29,16,52,12.50
2013,04,29,16,53,12.40
2013,04,29,16,54,12.30
2013,04,29,16,55,12.10
2013,04,29,16,56,11.90
2013,04,29,16,57,11.80
2013,04,29,16,58,11.80
2013,04,29,16,59,11.70
2013,04,29,17,00,11.60
2013,04,29,17,01,11.60
2013,04,29,17,02,11.60
2013,04,29,17,03,11.60
2013,04,29,17,04,11.60
2013,04,29,17,05,11.40
2013,04,29,17,06,11.40
2013,04,29,17,07,11.40
2013,04,29,17,08,11.40
2013,04,29,17,09,11.60
2013,04,29,17,10,11.60
2013,04,29,17,11,11.70
2013,04,29,17,12,11.70
2013,04,29,17,13,11.70
2013,04,29,17,14,11.70
2013,04,29,17,15,11.80
2013,04,29,17,16,11.80
2013,04,29,17,17,11.80
2013,04,29,17,18,12.00
2013,04,29,17,19,12.10
2013,04,29,17,20,12.30
2013,04,29,17,21,12.40
2013,04,29,17,22,12.50
2013,04,29,17,23,12.50
2013,04,29,17,24,12.40
2013,04,29,17,25,12.30
2013,04,29,17,26,12.30
2013,04,29,17,27,12.30
2013,04,29,17,28,12.30
2013,04,29,17,29,12.40
2013,04,29,17,30,12.50
2013,04,29,17,31,12.50
2013,04,29,17,32,12.50
2013,04,29,17,33,12.50
2013,04,29,17,34,12.50
2013,04,29,17,35,12.50
2013,04,29,17,36,12.50
2013,04,29,17,37,12.40
2013,04,29,17,38,12.30
2013,04,29,17,39,12.30
2013,04,29,17,40,12.30
2013,04,29,17,41,12.30
2013,04,29,17,42,12.30
2013,04,29,17,43,12.40
2013,04,29,17,44,12.40
2013,04,29,17,45,12.40
2013,04,29,17,46,12.30
2013,04,29,17,47,12.20
2013,04,29,17,48,12.10
2013,04,29,17,49,12.00
2013,04,29,17,50,12.00
2013,04,29,17,51,12.00
2013,04,29,17,52,12.10
2013,04,29,17,53,12.10
2013,04,29,17,54,12.10
2013,04,29,17,55,12.20
2013,04,29,17,56,12.20
2013,04,29,17,57,12.30
2013,04,29,17,58,12.30
2013,04,29,17,59,12.30
2013,04,29,18,00,12.50
2013,04,29,18,01,12.60
2013,04,29,18,02,12.70
2013,04,29,18,03,12.70
2013,04,29,18,04,12.80
2013,04,29,18,05,12.80
2013,04,29,18,06,12.90
2013,04,29,18,07,13.10
2013,04,29,18,08,13.20
2013,04,29,18,09,13.30
2013,04,29,18,10,13.30
2013,04,29,18,11,13.30
2013,04,29,18,12,13.20
2013,04,29,18,13,13.10
2013,04,29,18,14,13.00
2013,04,29,18,15,12.80
2013,04,29,18,16,12.70
2013,04,29,18,17,12.70
2013,04,29,18,18,12.70
2013,04,29,18,19,12.60
2013,04,29,18,20,12.60
2013,04,29,18,21,12.60
2013,04,29,18,22,12.60
2013,04,29,18,23,12.60
2013,04,29,18,24,12.60
2013,04,29,18,25,12.70
2013,04,29,18,26,12.80
2013,04,29,18,27,12.80
2013,04,29,18,28,12.80
2013,04,29,18,29,12.70
2013,04,29,18,30,12.70
2013,04,29,18,31,12.70
2013,04,29,18,32,12.60
2013,04,29,18,33,12.60
2013,04,29,18,34,12.60
2013,04,29,18,35,12.60
2013,04,29,18,36,12.70
2013,04,29,18,37,12.70
2013,04,29,18,38,12.70
2013,04,29,18,39,12.60
2013,04,29,18,40,12.50
2013,04,29,18,41,12.50
2013,04,29,18,42,12.50
2013,04,29,18,43,12.50
2013,04,29,18,44,12.50
2013,04,29,18,45,12.30
2013,04,29,18,46,12.20
2013,04,29,18,47,12.10
2013,04,29,18,48,12.00
2013,04,29,18,49,11.90
2013,04,29,18,50,12.00
2013,04,29,18,51,12.10
2013,04,29,18,52,12.20
2013,04,29,18,53,12.30
2013,04,29,18,54,12.30
2013,04,29,18,55,12.30
2013,04,29,18,56,12.30
2013,04,29,18,57,12.30
2013,04,29,18,58,12.30
2013,04,29,18,59,12.30
2013,04,29,19,00,12.40
2013,04,29,19,01,12.30
2013,04,29,19,02,12.10
2013,04,29,19,03,12.00
2013,04,29,19,04,11.80
2013,04,29,19,05,11.60
2013,04,29,19,06,11.30
2013,04,29,19,07,11.10
2013,04,29,19,08,10.90
2013,04,29,19,09,10.90
2013,04,29,19,10,10.70
2013,04,29,19,11,10.60
2013,04,29,19,12,10.60
2013,04,29,19,13,10.60
2013,04,29,19,14,10.40
2013,04,29,19,15,10.40
2013,04,29,19,16,10.40
2013,04,29,19,17,10.20
2013,04,29,19,18,10.20
2013,04,29,19,19,10.10
2013,04,29,19,20,10.10
2013,04,29,19,21,9.90
2013,04,29,19,22,10.10
2013,04,29,19,23,10.10
2013,04,29,19,24,10.10
2013,04,29,19,25,10.10
2013,04,29,19,26,10.10
2013,04,29,19,27,10.10
2013,04,29,19,28,10.20
2013,04,29,19,29,10.10
2013,04,29,19,30,10.20
2013,04,29,19,31,10.20
2013,04,29,19,32,10.20
2013,04,29,19,33,10.20
2013,04,29,19,34,10.20
2013,04,29,19,35,10.20
2013,04,29,19,36,10.30
2013,04,29,19,37,10.30
2013,04,29,19,38,10.40
2013,04,29,19,39,10.40
2013,04,29,19,40,10.40
2013,04,29,19,41,10.40
2013,04,29,19,42,10.60
2013,04,29,19,43,10.60
2013,04,29,19,44,10.60
2013,04,29,19,45,10.70
2013,04,29,19,46,10.70
2013,04,29,19,47,10.60
2013,04,29,19,48,10.60
2013,04,29,19,49,10.60
2013,04,29,19,50,10.40
2013,04,29,19,51,10.40
2013,04,29,19,52,10.30
2013,04,29,19,53,10.20
2013,04,29,19,54,10.10
2013,04,29,19,55,10.10
2013,04,29,19,56,10.10
2013,04,29,19,57,9.90
2013,04,29,19,58,9.90
2013,04,29,19,59,9.80
2013,04,29,20,00,9.70
2013,04,29,20,01,9.70
2013,04,29,20,02,9.70
2013,04,29,20,03,9.60
2013,04,29,20,04,9.60
2013,04,29,20,05,9.50
2013,04,29,20,06,9.50
2013,04,29,20,07,9.40
2013,04,29,20,08,9.40
2013,04,29,20,09,9.40
2013,04,29,20,10,9.40
2013,04,29,20,11,9.30
2013,04,29,20,12,9.30
2013,04,29,20,13,9.30